This demonstration page uses our WeatherBlox Daily Observations layout. Learn more.

Left ArrowRight Arrow

41.55636, -103.73856

Hourly Observations for December 21, 2021

Temp ( °F °C ) Dew Point ( °F °C ) Humidity (%) Winds ( mph kmh ) Pressure ( in mb ) Visibility ( mi km ) Precip ( " mm )
12:58 am 00:58 Clear 45 7.2 4 -15.4 18 18 WSW 18 30 29.95 1014 10 16 0.00 0.00
1:58 am 01:58 Clear 42 5.3 4 -15.5 21 21 WSW 18 30 29.95 1014 10 16 0.00 0.00
2:58 am 02:58 Mostly Clear 44 6.9 5 -15.1 19 19 WNW 17 28 29.93 1014 10 16 0.00 0.00
3:58 am 03:58 Mostly Cloudy 48 8.8 0 -17.6 14 14 WNW 20 31 29.94 1014 10 16 0.00 0.00
5:58 am 05:58 Clear 45 7.4 2 -16.9 16 16 WNW 14 22 29.99 1016 10 16 0.00 0.00
6:58 am 06:58 Mostly Clear 44 6.8 4 -15.6 19 19 W 7 11 30.00 1016 10 16 0.00 0.00
7:58 am 07:58 Sunny 44 6.5 5 -15.2 20 20 WNW 9 15 30.01 1016 10 16 0.00 0.00
8:58 am 08:58 Sunny 45 7.3 8 -13.4 22 22 NE 14 22 30.02 1017 10 16 0.00 0.00
9:58 am 09:58 Sunny 45 7.4 10 -12.3 23 23 NNE 5 7 30.02 1017 10 16 0.00 0.00
10:58 am 10:58 Sunny 52 10.9 6 -14.5 15 15 N 10 17 29.96 1015 10 16 0.00 0.00
11:58 am 11:58 Sunny 55 13 7 -13.8 14 14 NW 28 44 29.90 1012 10 16 0.00 0.00
12:58 pm 12:58 Sunny 56 13.4 7 -13.7 14 14 NW 31 50 29.85 1011 10 16 0.00 0.00
1:58 pm 13:58 Sunny 55 12.9 7 -13.8 14 14 NW 35 56 29.85 1011 10 16 0.00 0.00
2:58 pm 14:58 Sunny 54 12.4 8 -13.6 15 15 NW 30 48 29.84 1011 10 16 0.00 0.00
3:58 pm 15:58 Sunny 51 10.5 9 -12.9 18 18 NW 14 22 29.88 1012 10 16 0.00 0.00
4:58 pm 16:58 Clear 47 8.1 9 -12.8 21 21 NW 12 19 29.94 1014 10 16 0.00 0.00
5:58 pm 17:58 Clear 42 5.3 9 -12.6 26 26 NNW 7 11 29.94 1014 10 16 0.00 0.00
6:58 pm 18:58 Clear 38 3.3 9 -12.8 30 30 SW 5 7 29.94 1014 10 16 0.00 0.00
7:58 pm 19:58 Clear 40 4.5 6 -14.5 24 24 W 10 17 29.92 1013 10 16 0.00 0.00
8:58 pm 20:58 Clear 33 0.7 4 -15.6 29 29 SW 12 19 29.94 1014 10 16 0.00 0.00
9:58 pm 21:58 Clear 37 2.9 -6 -20.9 16 16 SW 14 22 29.93 1014 10 16 0.00 0.00
10:58 pm 22:58 Clear 37 2.5 -9 -22.7 14 14 SW 10 17 29.90 1013 10 16 0.00 0.00
11:58 pm 23:58 Clear 35 1.4 -7 -21.5 16 16 SSW 13 20 29.90 1013 10 16 0.00 0.00

Powered by AerisWeather